Location: Fort Worth, Tx
(32.7431°N, 97.3695°W)
Time: 02:37:09
(UTC-05:00)

S-56A Canister/Altair - All Passes

Search period start: 25 February 2024 00:00
Search period end: 06 March 2024 00:00
Orbit: 640 x 2488 km, 38.9° (Epoch: 24 February)

Date Brightness Start Highest point End Pass type
(mag) Time Alt. Az. Time Alt. Az. Time Alt. Az.
25 Feb - 08:36:28 10° SSW 08:43:56 26° SSE 08:49:27 10° E daylight
25 Feb - 10:40:24 10° WSW 10:48:15 79° SSE 10:53:36 10° ENE daylight
25 Feb - 12:46:45 10° W 12:52:21 45° N 12:56:46 10° ENE daylight
25 Feb - 14:52:00 10° WNW 14:56:34 51° NNE 15:00:59 10° E daylight
25 Feb - 16:55:53 10° WNW 17:00:09 43° SSW 17:05:08 10° SE daylight
26 Feb - 08:02:52 10° SSW 08:10:24 24° SE 08:16:05 10° E daylight
26 Feb - 10:06:24 10° SW 10:14:54 71° SSE 10:20:35 10° ENE daylight
26 Feb - 12:12:52 10° W 12:19:04 49° NNW 12:23:43 10° ENE daylight
26 Feb - 14:18:36 10° WNW 14:23:21 47° N 14:27:40 10° E daylight
26 Feb - 16:22:40 10° WNW 16:27:00 52° SSW 16:31:49 10° SE daylight
27 Feb - 07:29:19 10° S 07:36:49 22° SE 07:42:36 10° E visible
27 Feb - 09:32:21 10° SW 09:41:30 64° SSE 09:47:32 10° ENE daylight
27 Feb - 11:38:52 10° W 11:45:45 54° NNW 11:50:41 10° ENE daylight
27 Feb - 13:45:04 10° WNW 13:50:07 45° N 13:54:25 10° E daylight
27 Feb - 15:49:25 10° WNW 15:53:52 63° SSW 15:58:32 10° SE daylight
27 Feb - 17:55:50 10° SW 17:57:12 11° SW 17:58:39 10° SSW daylight
28 Feb - 06:55:51 10° S 07:03:09 19° SE 07:08:59 10° E visible
28 Feb - 08:58:17 10° SW 09:08:02 57° SSE 09:14:27 10° ENE daylight
28 Feb - 11:04:47 10° W 11:12:24 61° NNW 11:17:40 10° ENE daylight
28 Feb - 13:11:25 10° WNW 13:16:51 44° N 13:21:13 10° ENE daylight
28 Feb - 15:16:06 10° WNW 15:20:45 76° SSW 15:25:18 10° ESE daylight
28 Feb - 17:21:45 10° WSW 17:23:59 13° SW 17:26:22 10° S daylight
29 Feb - 06:22:31 10° S 06:29:28 18° SE 06:35:10 10° ESE visible
29 Feb - 08:24:12 10° SW 08:34:29 52° SSE 08:41:20 10° ENE daylight
29 Feb - 10:30:35 10° W 10:39:01 67° NNW 10:44:40 10° ENE daylight
29 Feb - 12:37:37 10° WNW 12:43:33 44° N 12:48:05 10° ENE daylight
29 Feb - 14:42:43 10° WNW 14:47:37 89° SSW 14:52:05 10° ESE daylight
29 Feb - 16:47:59 10° WSW 16:50:48 16° SW 16:53:46 10° S daylight
01 Mar - 05:49:23 10° S 05:55:43 16° SE 06:01:06 10° ESE visible
01 Mar - 07:50:07 10° SW 08:00:53 48° SSE 08:08:09 10° ENE daylight
01 Mar - 09:56:19 10° WSW 10:05:35 74° NNW 10:11:38 10° ENE daylight
01 Mar - 12:03:41 10° WNW 12:10:12 46° N 12:14:59 10° ENE daylight
01 Mar - 14:09:14 10° WNW 14:14:27 79° NNE 14:18:54 10° ESE daylight
01 Mar - 16:14:20 10° W 16:17:38 20° SW 16:21:02 10° S daylight
02 Mar - 05:16:35 10° SSE 05:21:56 14° SE 05:26:40 10° ESE visible
02 Mar - 07:16:04 10° SSW 07:27:12 44° SSE 07:34:54 10° ENE visible
02 Mar - 09:22:00 10° WSW 09:32:05 82° NNW 09:38:36 10° ENE daylight
02 Mar - 11:29:37 10° WNW 11:36:49 48° N 11:41:54 10° ENE daylight
02 Mar - 13:35:40 10° WNW 13:41:15 70° NNE 13:45:45 10° ESE daylight
02 Mar - 15:40:44 10° W 15:44:31 25° SW 15:48:13 10° SSE daylight
03 Mar - 04:44:26 10° SSE 04:48:06 12° SE 04:51:30 10° ESE visible
03 Mar - 06:42:04 10° SSW 06:53:28 40° SE 07:01:34 10° E visible
03 Mar - 08:47:38 10° WSW 08:58:32 89° NNW 09:05:32 10° ENE daylight
03 Mar - 10:55:25 10° W 11:03:23 51° N 11:08:50 10° ENE daylight
03 Mar - 13:01:58 10° WNW 13:08:00 63° NNE 13:12:37 10° E daylight
03 Mar - 15:07:09 10° W 15:11:25 31° SW 15:15:22 10° SSE daylight
04 Mar - 06:08:07 10° SSW 06:19:40 37° SE 06:28:07 10° E visible
04 Mar - 08:13:14 10° WSW 08:24:54 85° SSE 08:32:25 10° ENE daylight
04 Mar - 10:21:07 10° W 10:29:55 55° N 10:35:46 10° ENE daylight
04 Mar - 12:28:09 10° WNW 12:34:43 59° NNE 12:39:30 10° E daylight
04 Mar - 14:33:32 10° WNW 14:38:19 39° SW 14:42:28 10° SE daylight
05 Mar - 05:34:16 10° SSW 05:45:48 33° SE 05:54:34 10° E visible
05 Mar - 07:38:50 10° WSW 07:51:11 78° SSE 07:59:16 10° ENE daylight
05 Mar - 09:46:42 10° W 09:56:22 59° NNW 10:02:42 10° ENE daylight
05 Mar - 11:54:11 10° WNW 12:01:21 56° N 12:06:23 10° E daylight
05 Mar - 13:59:52 10° WNW 14:05:12 49° SSW 14:09:33 10° SE daylight
